This is the latest recevied weather packets stored in our database for station/object KD4MBW. If no packets are shown the sender has not sent any weather packets the latest 10 day(s).
| Time | Temp. | Humidity | Pressure | Rain* | Wind** | Luminosity | Snow |
|---|---|---|---|---|---|---|---|
| 1777842553 | 25° C | 35% | 1017.7 hPa | 0 mm | - | 443 W/m² | - |
| 1777842250 | 24.44° C | 34% | 1018.1 hPa | 0 mm | - | 459 W/m² | - |
| 1777841945 | 24.44° C | 35% | 1018 hPa | 0 mm | - | 476 W/m² | - |
| 1777841643 | 25° C | 33% | 1018.1 hPa | 0 mm | - | 490 W/m² | - |
| 1777841339 | 24.44° C | 35% | 1018.1 hPa | 0 mm | - | 508 W/m² | - |
| 1777841036 | 24.44° C | 33% | 1018.2 hPa | 0 mm | - | 530 W/m² | - |
| 1777840733 | 23.89° C | 35% | 1018.1 hPa | 0 mm | - | 552 W/m² | - |
| 1777840430 | 24.44° C | 34% | 1018.3 hPa | 0 mm | - | 509 W/m² | - |
| 1777840127 | 25° C | 34% | 1018.3 hPa | 0 mm | - | 568 W/m² | - |
| 1777839825 | 24.44° C | 34% | 1018.5 hPa | 0 mm | - | 542 W/m² | - |
| 1777839523 | 24.44° C | 34% | 1018.5 hPa | 0 mm | - | 564 W/m² | - |
| 1777839220 | 24.44° C | 34% | 1018.4 hPa | 0 mm | - | 390 W/m² | - |
| 1777838918 | 24.44° C | 35% | 1018.6 hPa | 0 mm | - | 433 W/m² | - |
| 1777838613 | 25° C | 35% | 1018.4 hPa | 0 mm | - | 419 W/m² | - |
| 1777838311 | 25° C | 34% | 1018.5 hPa | 0 mm | - | 641 W/m² | - |
| 1777838007 | 24.44° C | 35% | 1018.4 hPa | 0 mm | - | 692 W/m² | - |
| 1777837704 | 24.44° C | 34% | 1018.5 hPa | 0 mm | - | 680 W/m² | - |
| 1777837400 | 24.44° C | 34% | 1018.4 hPa | 0 mm | - | 578 W/m² | - |
| 1777837097 | 25° C | 33% | 1018.6 hPa | 0 mm | - | 728 W/m² | - |
| 1777836793 | 23.89° C | 33% | 1018.8 hPa | 0 mm | - | 712 W/m² | - |
| 1777836489 | 23.89° C | 35% | 1018.8 hPa | 0 mm | - | 660 W/m² | - |
| 1777836184 | 23.89° C | 33% | 1019 hPa | 0 mm | - | 577 W/m² | - |
| 1777835881 | 24.44° C | 34% | 1019 hPa | 0 mm | - | 677 W/m² | - |
| 1777835577 | 23.89° C | 35% | 1019.2 hPa | 0 mm | - | 696 W/m² | - |
| 1777835275 | 23.89° C | 36% | 1019 hPa | 0 mm | - | 740 W/m² | - |
* Rain latest hour (hover to see other rain measurements)
** Current wind speed in m/s (hover to see current wind gust speed)